RYR86D EBCI-LFMU

Flight info

Callsign RYR86D
Flight time N/A
Altitude 31000
Route CIV N872 LESDO DCT KOVIN DCT DUCRA UM728 RESMI UN857 DISAK DCT DIRMO DCT ETAMO DCT ADEKA DCT MOKDI DCT MEN J27 AFRIC
Aircraft B738/M-SDE2E3FGHIRWXY/LB1

Departure

Time 2026-05-05 20:02
Airport Brussels South Charleroi Airport (EBCI)

Arrival

Time N/A
Airport Béziers Vias airport (LFMU)
Time Latitude Longitude Altitude Speed Heading
2026-05-05 19:28 50.46099 4.46467 584 ft 0 kts 155°
2026-05-05 19:41 50.46099 4.46468 584 ft 0 kts 155°
2026-05-05 19:45 50.46110 4.46460 584 ft 4 kts 160°
2026-05-05 19:45 50.46135 4.46447 584 ft 4 kts 169°
2026-05-05 19:45 50.46158 4.46442 584 ft 1 kts 173°
2026-05-05 19:46 50.46163 4.46441 584 ft 0 kts 173°
2026-05-05 19:50 50.46161 4.46441 584 ft 2 kts 177°
2026-05-05 19:50 50.46144 4.46397 585 ft 7 kts 259°
2026-05-05 19:50 50.46133 4.46321 585 ft 7 kts 253°
2026-05-05 19:51 50.46115 4.46250 586 ft 7 kts 246°
2026-05-05 19:51 50.46095 4.46182 587 ft 7 kts 246°
2026-05-05 19:51 50.46076 4.46112 588 ft 10 kts 246°
2026-05-05 19:51 50.46048 4.45960 590 ft 19 kts 265°
2026-05-05 19:52 50.46007 4.45762 592 ft 19 kts 246°
2026-05-05 19:52 50.45953 4.45578 594 ft 18 kts 245°
2026-05-05 19:52 50.45900 4.45400 596 ft 18 kts 245°
2026-05-05 19:52 50.45850 4.45231 598 ft 17 kts 245°
2026-05-05 19:53 50.45801 4.45065 600 ft 16 kts 245°
2026-05-05 19:53 50.45756 4.44905 602 ft 16 kts 246°
2026-05-05 19:53 50.45713 4.44750 614 ft 15 kts 246°
2026-05-05 19:53 50.45670 4.44602 609 ft 15 kts 245°
2026-05-05 19:54 50.45629 4.44461 613 ft 14 kts 245°
2026-05-05 19:54 50.45589 4.44327 622 ft 13 kts 245°
2026-05-05 19:54 50.45550 4.44198 613 ft 13 kts 245°
2026-05-05 19:54 50.45514 4.44072 619 ft 13 kts 246°
2026-05-05 19:55 50.45479 4.43948 618 ft 12 kts 246°
2026-05-05 19:55 50.45446 4.43828 625 ft 12 kts 249°
2026-05-05 19:55 50.45477 4.43725 622 ft 12 kts 332°
2026-05-05 19:55 50.45543 4.43752 621 ft 11 kts 62°
2026-05-05 19:56 50.45572 4.43864 613 ft 11 kts 67°
2026-05-05 19:56 50.45604 4.43971 613 ft 11 kts 64°
2026-05-05 19:56 50.45634 4.44075 621 ft 10 kts 66°
2026-05-05 19:56 50.45658 4.44159 615 ft 0 kts 65°
2026-05-05 20:01 50.45658 4.44160 615 ft 1 kts 65°
2026-05-05 20:01 50.45785 4.44587 621 ft 88 kts 65°
2026-05-05 20:02 50.46161 4.45854 635 ft 162 kts 62°
2026-05-05 20:02 50.46655 4.47590 1338 ft 187 kts 65°
2026-05-05 20:02 50.47382 4.49176 2638 ft 173 kts 41°
2026-05-05 20:02 50.48287 4.50246 4019 ft 157 kts 40°
2026-05-05 20:03 50.48993 4.51548 4852 ft 163 kts 52°
2026-05-05 20:03 50.49768 4.53081 5146 ft 193 kts 51°
2026-05-05 20:03 50.50702 4.54784 5355 ft 218 kts 40°
2026-05-05 20:03 50.52178 4.55589 5678 ft 237 kts
2026-05-05 20:04 50.53782 4.54884 6164 ft 250 kts 331°
2026-05-05 20:04 50.55025 4.52935 6742 ft 259 kts 301°
2026-05-05 20:04 50.55601 4.50187 7120 ft 277 kts 279°
2026-05-05 20:04 50.55752 4.47093 7672 ft 289 kts 273°
2026-05-05 20:05 50.55798 4.43953 8640 ft 288 kts 272°
2026-05-05 20:05 50.55838 4.40776 9480 ft 292 kts 272°
2026-05-05 20:05 50.55891 4.37573 10298 ft 296 kts 272°
2026-05-05 20:05 50.55963 4.34207 10572 ft 321 kts 272°
2026-05-05 20:06 50.56054 4.30563 10833 ft 343 kts 272°
2026-05-05 20:06 50.56156 4.26808 11457 ft 351 kts 272°
2026-05-05 20:06 50.56267 4.22949 12216 ft 355 kts 272°
2026-05-05 20:06 50.56382 4.19045 12986 ft 360 kts 272°
2026-05-05 20:07 50.56499 4.15076 13733 ft 364 kts 272°
2026-05-05 20:07 50.56617 4.11083 14500 ft 366 kts 272°
2026-05-05 20:07 50.56733 4.07071 15195 ft 369 kts 271°
2026-05-05 20:07 50.56851 4.03010 15919 ft 372 kts 271°
2026-05-05 20:08 50.56968 3.98936 16674 ft 373 kts 271°
2026-05-05 20:08 50.57082 3.94888 17407 ft 376 kts 271°
2026-05-05 20:08 50.57186 3.90755 18113 ft 378 kts 268°
2026-05-05 20:08 50.56734 3.86697 18645 ft 379 kts 247°
2026-05-05 20:09 50.55374 3.83155 19218 ft 379 kts 227°
2026-05-05 20:09 50.53358 3.80484 19753 ft 381 kts 208°
2026-05-05 20:09 50.50981 3.78718 20319 ft 383 kts 202°
2026-05-05 20:09 50.48508 3.77084 20812 ft 389 kts 201°
2026-05-05 20:10 50.45996 3.75447 21370 ft 392 kts 201°
2026-05-05 20:10 50.43458 3.73771 21939 ft 395 kts 202°
2026-05-05 20:10 50.40921 3.72068 22426 ft 399 kts 202°
2026-05-05 20:10 50.38352 3.70326 22922 ft 404 kts 202°
2026-05-05 20:11 50.35762 3.68566 23433 ft 407 kts 202°
2026-05-05 20:11 50.33153 3.66795 23877 ft 410 kts 202°
2026-05-05 20:11 50.30562 3.65040 24317 ft 412 kts 202°
2026-05-05 20:11 50.27919 3.63254 24772 ft 414 kts 202°
2026-05-05 20:12 50.25263 3.61457 25215 ft 416 kts 202°
2026-05-05 20:12 50.22604 3.59662 25684 ft 417 kts 202°
2026-05-05 20:12 50.19931 3.57862 25828 ft 420 kts 201°
2026-05-05 20:12 50.17245 3.56056 25847 ft 417 kts 201°
2026-05-05 20:13 50.14590 3.54276 25839 ft 414 kts 201°
2026-05-05 20:13 50.11935 3.52499 25856 ft 415 kts 201°
2026-05-05 20:13 50.09276 3.50722 25859 ft 417 kts 201°
2026-05-05 20:13 50.06643 3.48964 25855 ft 418 kts 201°
2026-05-05 20:14 50.03933 3.47155 25854 ft 418 kts 201°
2026-05-05 20:14 50.01285 3.45391 25847 ft 419 kts 201°
2026-05-05 20:14 49.98608 3.43607 25846 ft 419 kts 201°
2026-05-05 20:14 49.95926 3.41824 25840 ft 419 kts 201°
2026-05-05 20:15 49.93244 3.40042 25843 ft 418 kts 201°
2026-05-05 20:15 49.90568 3.38266 25836 ft 418 kts 201°
2026-05-05 20:15 49.87895 3.36494 25837 ft 418 kts 201°
2026-05-05 20:15 49.85215 3.34719 25839 ft 418 kts 201°
2026-05-05 20:16 49.82546 3.32955 25841 ft 418 kts 201°
2026-05-05 20:16 49.79870 3.31187 25837 ft 418 kts 201°
2026-05-05 20:16 49.77199 3.29421 25837 ft 418 kts 201°
2026-05-05 20:16 49.74522 3.27650 25838 ft 418 kts 201°
2026-05-05 20:17 49.71850 3.25884 25839 ft 418 kts 201°
2026-05-05 20:17 49.69208 3.24140 25836 ft 418 kts 201°
2026-05-05 20:17 49.66493 3.22349 25832 ft 419 kts 201°
2026-05-05 20:17 49.63844 3.20604 25836 ft 419 kts 201°
2026-05-05 20:18 49.61164 3.18840 25836 ft 419 kts 201°
2026-05-05 20:18 49.58480 3.17077 25834 ft 419 kts 201°
2026-05-05 20:18 49.55796 3.15314 25833 ft 420 kts 201°
2026-05-05 20:18 49.53105 3.13549 25838 ft 420 kts 201°
2026-05-05 20:19 49.50405 3.11783 25881 ft 424 kts 201°
2026-05-05 20:19 49.47735 3.09817 26292 ft 427 kts 209°
2026-05-05 20:19 49.45242 3.07366 26959 ft 423 kts 212°
2026-05-05 20:19 49.42800 3.04852 27654 ft 419 kts 212°
2026-05-05 20:20 49.40393 3.02357 28318 ft 415 kts 212°
2026-05-05 20:20 49.38002 2.99889 28908 ft 413 kts 212°
2026-05-05 20:20 49.35610 2.97439 29425 ft 413 kts 211°
2026-05-05 20:20 49.33214 2.95000 29928 ft 413 kts 211°
2026-05-05 20:21 49.30823 2.92578 30394 ft 411 kts 211°
2026-05-05 20:21 49.28465 2.90196 30798 ft 411 kts 211°
2026-05-05 20:21 49.26066 2.87779 30806 ft 413 kts 211°
2026-05-05 20:22 49.21281 2.82964 30831 ft 411 kts 211°
2026-05-05 20:22 49.16489 2.78155 30838 ft 413 kts 211°
2026-05-05 20:23 49.11675 2.73333 30837 ft 414 kts 211°
2026-05-05 20:23 49.06850 2.68511 30836 ft 415 kts 211°
2026-05-05 20:24 49.02834 2.64505 30832 ft 415 kts 211°
2026-05-05 20:24 48.97157 2.59496 30827 ft 411 kts 198°
2026-05-05 20:25 48.91802 2.56516 30833 ft 410 kts 197°
2026-05-05 20:25 48.86405 2.53587 30853 ft 411 kts 197°
2026-05-05 20:26 48.81931 2.51118 30832 ft 411 kts 197°
2026-05-05 20:26 48.76553 2.48120 30834 ft 412 kts 198°
2026-05-05 20:27 48.71195 2.45127 30830 ft 412 kts 198°
2026-05-05 20:27 48.65792 2.42113 30829 ft 413 kts 198°
2026-05-05 20:28 48.60392 2.39109 30831 ft 413 kts 198°
2026-05-05 20:28 48.54990 2.36111 30832 ft 413 kts 198°
2026-05-05 20:29 48.49613 2.33134 30838 ft 413 kts 198°
2026-05-05 20:29 48.44199 2.30144 30841 ft 412 kts 198°
2026-05-05 20:30 48.38836 2.27188 30839 ft 412 kts 198°
2026-05-05 20:30 48.33452 2.24227 30836 ft 411 kts 198°
2026-05-05 20:31 48.28110 2.21295 30837 ft 410 kts 198°
2026-05-05 20:31 48.22749 2.18359 30840 ft 409 kts 199°
2026-05-05 20:32 48.17425 2.15450 30844 ft 409 kts 199°
2026-05-05 20:32 48.11943 2.13339 30854 ft 406 kts 184°
2026-05-05 20:33 48.06311 2.13455 30855 ft 405 kts 176°
2026-05-05 20:33 48.00663 2.13871 30857 ft 405 kts 176°
2026-05-05 20:34 47.95051 2.14251 30857 ft 406 kts 176°
2026-05-05 20:34 47.89402 2.14595 30857 ft 406 kts 176°
2026-05-05 20:35 47.83748 2.14925 30859 ft 406 kts 176°
2026-05-05 20:35 47.78095 2.15251 30858 ft 406 kts 177°
2026-05-05 20:36 47.72479 2.15575 30855 ft 405 kts 177°
2026-05-05 20:36 47.66829 2.15900 30870 ft 405 kts 177°
2026-05-05 20:37 47.61194 2.16224 30855 ft 405 kts 177°
2026-05-05 20:37 47.55606 2.16545 30851 ft 404 kts 177°
2026-05-05 20:38 47.49985 2.16867 30853 ft 404 kts 177°
2026-05-05 20:38 47.44351 2.17189 30855 ft 403 kts 177°
2026-05-05 20:39 47.38736 2.17509 30860 ft 403 kts 177°
2026-05-05 20:39 47.33140 2.17828 30857 ft 403 kts 177°
2026-05-05 20:40 47.27578 2.18144 30864 ft 402 kts 177°
2026-05-05 20:40 47.21986 2.18461 30871 ft 401 kts 178°
2026-05-05 20:41 47.16417 2.18776 30870 ft 400 kts 178°
2026-05-05 20:41 47.10854 2.19113 30872 ft 399 kts 174°
2026-05-05 20:42 47.05531 2.21040 30882 ft 397 kts 159°
2026-05-05 20:42 47.00400 2.24133 30881 ft 397 kts 158°
2026-05-05 20:43 46.95321 2.27171 30871 ft 396 kts 159°
2026-05-05 20:43 46.90210 2.30173 30878 ft 395 kts 159°
2026-05-05 20:44 46.85097 2.33163 30887 ft 395 kts 158°
2026-05-05 20:44 46.80326 2.37149 30887 ft 396 kts 148°
2026-05-05 20:45 46.73437 2.43822 30888 ft 396 kts 148°
2026-05-05 20:45 46.68851 2.48220 30884 ft 397 kts 148°
2026-05-05 20:46 46.64227 2.52619 30891 ft 397 kts 149°
2026-05-05 20:46 46.59588 2.57014 30901 ft 397 kts 149°
2026-05-05 20:47 46.54949 2.61398 30884 ft 397 kts 149°
2026-05-05 20:47 46.50346 2.65739 30882 ft 397 kts 149°
2026-05-05 20:48 46.45711 2.70103 30895 ft 396 kts 149°
2026-05-05 20:48 46.41079 2.74453 30895 ft 395 kts 149°
2026-05-05 20:49 46.36491 2.78754 30892 ft 395 kts 149°
2026-05-05 20:49 46.31862 2.83084 30893 ft 394 kts 149°
2026-05-05 20:50 46.27275 2.87367 30891 ft 394 kts 149°
2026-05-05 20:50 46.22647 2.91679 30895 ft 394 kts 149°
2026-05-05 20:51 46.18044 2.95960 30890 ft 394 kts 150°
2026-05-05 20:51 46.13416 3.00255 30896 ft 395 kts 150°
2026-05-05 20:52 46.08812 3.04519 30894 ft 395 kts 150°
2026-05-05 20:52 46.04186 3.08796 30900 ft 395 kts 150°
2026-05-05 20:53 45.99550 3.13074 30900 ft 395 kts 150°
2026-05-05 20:53 45.94781 3.16800 30901 ft 390 kts 164°
2026-05-05 20:54 45.89480 3.18063 30909 ft 385 kts 181°
2026-05-05 20:54 45.84117 3.17968 30911 ft 384 kts 182°
2026-05-05 20:55 45.78801 3.17831 30912 ft 384 kts 182°
2026-05-05 20:55 45.73449 3.17728 30915 ft 384 kts 182°
2026-05-05 20:56 45.68099 3.17648 30912 ft 384 kts 182°
2026-05-05 20:56 45.62761 3.17577 30906 ft 383 kts 182°
2026-05-05 20:57 45.57437 3.17507 30903 ft 382 kts 182°
2026-05-05 20:57 45.52161 3.17437 30899 ft 380 kts 182°
2026-05-05 20:58 45.46874 3.17368 30899 ft 379 kts 182°
2026-05-05 20:58 45.41608 3.17299 30898 ft 377 kts 182°
2026-05-05 20:59 45.36365 3.17231 30897 ft 376 kts 182°
2026-05-05 20:59 45.31139 3.17161 30912 ft 375 kts 182°
2026-05-05 21:00 45.25926 3.17092 30904 ft 374 kts 182°
2026-05-05 21:00 45.20726 3.17025 30913 ft 373 kts 182°
2026-05-05 21:01 45.15537 3.16958 30907 ft 372 kts 182°
2026-05-05 21:01 45.10362 3.16890 30918 ft 371 kts 182°
2026-05-05 21:02 45.05194 3.16823 30927 ft 371 kts 182°
2026-05-05 21:02 45.00056 3.16756 30917 ft 371 kts 183°
2026-05-05 21:03 44.94886 3.16689 30928 ft 371 kts 183°
2026-05-05 21:03 44.89694 3.16615 30926 ft 371 kts 183°
2026-05-05 21:04 44.84564 3.16540 30925 ft 371 kts 183°
2026-05-05 21:04 44.79400 3.16466 30931 ft 371 kts 183°
2026-05-05 21:05 44.74236 3.16392 30937 ft 371 kts 183°
2026-05-05 21:05 44.69076 3.16318 30937 ft 371 kts 183°
2026-05-05 21:06 44.63922 3.16244 30935 ft 370 kts 183°
2026-05-05 21:06 44.58859 3.15593 30939 ft 367 kts 195°
2026-05-05 21:07 44.53919 3.13811 30949 ft 366 kts 196°
2026-05-05 21:07 44.48950 3.12011 30937 ft 367 kts 196°
2026-05-05 21:08 44.44037 3.10256 30936 ft 367 kts 195°
2026-05-05 21:08 44.39088 3.08503 30942 ft 367 kts 195°
2026-05-05 21:09 44.34140 3.06756 30958 ft 367 kts 195°
2026-05-05 21:09 44.29182 3.05008 30947 ft 367 kts 196°
2026-05-05 21:10 44.24290 3.03289 30866 ft 353 kts 196°
2026-05-05 21:10 44.21934 3.02462 30662 ft 346 kts 196°
2026-05-05 21:10 44.19615 3.01645 30315 ft 343 kts 196°
2026-05-05 21:11 44.17308 3.00835 29947 ft 341 kts 195°
2026-05-05 21:11 44.15028 3.00037 29751 ft 332 kts 195°
2026-05-05 21:11 44.12826 2.99267 29678 ft 321 kts 195°
2026-05-05 21:11 44.10714 2.98432 29577 ft 310 kts 205°
2026-05-05 21:12 44.08919 2.96897 29468 ft 300 kts 219°
2026-05-05 21:12 44.07463 2.94849 29144 ft 298 kts 229°
2026-05-05 21:12 44.06335 2.92422 28655 ft 302 kts 240°
2026-05-05 21:12 44.05806 2.90622 28359 ft 306 kts 249°
2026-05-05 21:13 44.05421 2.87692 27967 ft 312 kts 263°
2026-05-05 21:13 44.05611 2.84658 27542 ft 320 kts 278°
2026-05-05 21:13 44.06420 2.81738 27154 ft 329 kts 294°
2026-05-05 21:13 44.07812 2.79183 26788 ft 337 kts 310°
2026-05-05 21:14 44.09712 2.77221 26393 ft 345 kts 328°
2026-05-05 21:14 44.11980 2.76059 26051 ft 350 kts 345°
2026-05-05 21:14 44.14405 2.75713 25719 ft 352 kts
2026-05-05 21:14 44.16820 2.76258 25398 ft 351 kts 13°
2026-05-05 21:15 44.19183 2.77101 25102 ft 349 kts 15°
2026-05-05 21:15 44.21525 2.77986 24795 ft 348 kts 15°
2026-05-05 21:15 44.23857 2.78840 24505 ft 346 kts 14°